Regional Weather Roundup
Issued by NWS

Home | Current Version | Previous Version | Graphics & Text | Print | Product List | Glossary On
Versions: 1 2 3 4 5 6 7 8 9 10 11 12 13 14 15 16 17 18 19 20 21 22 23 24 25 26 27 28 29 30 31 32 33 34 35 36 37 38 39 40 41 42 43 44 45 46 47 48 49 50
000
ASUS43 KFSD 220102
RWRSD

WEATHER ROUNDUP FOR SOUTH DAKOTA
NATIONAL WEATHER SERVICE SIOUX FALLS SD
800 PM CDT MON AUG 21 2017

NOTE: "FAIR" INDICATES FEW OR NO CLOUDS BELOW 12,000 FEET WITH NO
SIGNIFICANT WEATHER AND/OR OBSTRUCTIONS TO VISIBILITY.


SDZ001>005-009-010-012>017-220200-
NORTHWEST AND NORTH CENTRAL SOUTH DAKOTA

CITY           SKY/WX    TMP DP  RH WIND       PRES   REMARKS
BUFFALO          N/A     74  39  28 N9        30.08S
FAITH            N/A     73  43  33 N10       30.11R
MOBRIDGE       CLEAR     71  49  45 N12       30.03R
$$

SDZ012>016-024>037-041>051-057-063-072>074-220200-
SOUTHWEST AND SOUTH CENTRAL SOUTH DAKOTA

CITY           SKY/WX    TMP DP  RH WIND       PRES   REMARKS
RAPID CTY ARPT CLEAR     74  39  28 NE12      30.14S
PIERRE         CLEAR     73  49  42 N18G25    30.02R
CUSTER         CLEAR     65  37  35 E14       30.25R
ELLSWORTH AFB  CLEAR     76  38  25 N7        30.14S
PHILIP         CLEAR     77  42  28 N15       30.08R
PINE RIDGE     CLEAR     76  44  32 NE9       30.14R
SPEARFISH      FAIR      72  37  28 N6        30.19S
WINNER         FAIR      75  62  64 N10       30.05R
$$

SDZ004>011-016>023-039-040-220200-
NORTHEAST SOUTH DAKOTA

CITY           SKY/WX    TMP DP  RH WIND       PRES   REMARKS
ABERDEEN       CLEAR     73  54  51 N14       29.98R
WATERTOWN      CLEAR     70  61  73 NW5       29.96R
BROOKINGS      MOCLDY    70  64  81 W5        29.98S
SISSETON         N/A     69  60  73 NW6       29.92R
$$

SDZ017-020-022-023-036>040-048>070-220200-
SOUTHEAST SOUTH DAKOTA

CITY           SKY/WX    TMP DP  RH WIND       PRES   REMARKS
SIOUX FALLS    CLOUDY    70  66  87 W5        29.98S
HURON          CLEAR     73  63  70 N5        29.97R
CHAMBERLAIN    CLEAR     76  63  63 NW8       30.02R
MITCHELL       PTCLDY    73  66  78 CALM      29.98F
YANKTON        CLOUDY    69  65  86 E3        30.00R
$$

ABBREVIATIONS USED IN REMARKS
   TC - TEMPERATURE IN CELSIUS
  WCI - WIND CHILL INDEX
   HX - HEAT INDEX
  VSB - VISIBILITY





USA.gov is the U.S. government's official web portal to all federal, state and local government web resources and services.